| time (UTC) | temp F | wind direction | speed MPH | gust MPH | rain 1hr in | rain 24hr in | rain mn in | humidity % | barometer mb |
| 20260506091205 | 52 | 15 | 2.0 | 8.0 | 0.00 | 0.00 | 0.00 | 81 | 1008.7 |
| 20260506090705 | 52 | 64 | 2.0 | 6.0 | 0.00 | 0.00 | 0.00 | 82 | 1008.7 |
| 20260506090205 | 53 | 68 | 2.0 | 7.0 | 0.00 | 0.00 | 0.00 | 82 | 1008.6 |
| 20260506085705 | 53 | 71 | 1.0 | 9.0 | 0.00 | 0.00 | 0.00 | 83 | 1008.6 |
| 20260506085205 | 53 | 68 | 1.0 | 5.0 | 0.00 | 0.00 | 0.00 | 83 | 1008.5 |
| 20260506084705 | 53 | 68 | 2.0 | 6.0 | 0.00 | 0.00 | 0.00 | 83 | 1008.5 |
| 20260506084205 | 53 | 66 | 1.0 | 4.0 | 0.00 | 0.00 | 0.00 | 84 | 1008.4 |
| 20260506083705 | 52 | 65 | 1.0 | 5.0 | 0.00 | 0.00 | 0.00 | 83 | 1008.4 |
| 20260506083205 | 52 | 65 | 2.0 | 9.0 | 0.00 | 0.00 | 0.00 | 84 | 1008.4 |
| 20260506082705 | 52 | 27 | 3.0 | 8.0 | 0.00 | 0.00 | 0.00 | 84 | 1008.3 |
| 20260506082205 | 52 | 22 | 2.0 | 8.0 | 0.00 | 0.00 | 0.00 | 84 | 1008.2 |
| 20260506081705 | 52 | 29 | 3.0 | 10.0 | 0.00 | 0.00 | 0.00 | 83 | 1008.3 |
| 20260506081205 | 52 | 18 | 3.0 | 8.0 | 0.00 | 0.00 | 0.00 | 81 | 1008.3 |
| 20260506080705 | 53 | 19 | 3.0 | 7.0 | 0.00 | 0.00 | 0.00 | 80 | 1008.2 |
| 20260506080205 | 53 | 18 | 3.0 | 8.0 | 0.00 | 0.00 | 0.00 | 80 | 1008.1 |
| 20260506073205 | 53 | 10 | 3.0 | 10.0 | 0.00 | 0.00 | 0.00 | 80 | 1008.0 |
| 20260506072705 | 53 | 8 | 3.0 | 8.0 | 0.00 | 0.00 | 0.00 | 79 | 1008.0 |
| 20260506072205 | 53 | 8 | 2.0 | 6.0 | 0.00 | 0.00 | 0.00 | 80 | 1007.9 |
| 20260506071705 | 53 | 9 | 2.0 | 10.0 | 0.00 | 0.00 | 0.00 | 80 | 1007.9 |
| 20260506071205 | 53 | 11 | 3.0 | 7.0 | 0.00 | 0.00 | 0.00 | 80 | 1007.9 |
| 20260506070705 | 53 | 11 | 3.0 | 9.0 | 0.00 | 0.00 | 0.00 | 80 | 1007.9 |
| 20260506070205 | 53 | 18 | 2.0 | 7.0 | 0.00 | 0.00 | 0.00 | 80 | 1007.9 |
| 20260506062205 | 51 | 23 | 1.0 | 7.0 | 0.00 | 0.00 | 0.00 | 84 | 1007.8 |
| 20260506061705 | 50 | 23 | 1.0 | 6.0 | 0.00 | 0.00 | 0.00 | 84 | 1007.8 |
| 20260506061205 | 50 | 23 | 1.0 | 4.0 | 0.00 | 0.00 | 0.00 | 84 | 1007.8 |
| 20260506060705 | 50 | 23 | 1.0 | 4.0 | 0.00 | 0.00 | 0.00 | 84 | 1007.8 |
| 20260506060205 | 50 | 23 | 1.0 | 7.0 | 0.00 | 0.00 | 0.00 | 84 | 1007.7 |
| 20260506051205 | 49 | 24 | 1.0 | 5.0 | 0.00 | 0.00 | 0.00 | 83 | 1007.7 |
| 20260506050705 | 49 | 24 | 1.0 | 6.0 | 0.00 | 0.00 | 0.00 | 83 | 1007.7 |
| 20260506050205 | 48 | 24 | 1.0 | 5.0 | 0.00 | 0.00 | 0.00 | 84 | 1007.7 |
| 20260506044705 | 48 | 24 | 1.0 | 6.0 | 0.00 | 0.00 | 0.00 | 84 | 1007.7 |
| 20260506044205 | 48 | 24 | 1.0 | 5.0 | 0.00 | 0.00 | 0.00 | 84 | 1007.7 |
| 20260506043705 | 48 | 24 | 1.0 | 4.0 | 0.00 | 0.00 | 0.00 | 84 | 1007.7 |
| 20260506043205 | 48 | 24 | 1.0 | 7.0 | 0.00 | 0.00 | 0.00 | 84 | 1007.7 |
| 20260506042705 | 48 | 25 | 1.0 | 2.0 | 0.00 | 0.00 | 0.00 | 84 | 1007.7 |
| 20260506042205 | 48 | 25 | 1.0 | 5.0 | 0.00 | 0.00 | 0.00 | 84 | 1007.7 |
| 20260506041705 | 48 | 25 | 1.0 | 4.0 | 0.00 | 0.00 | 0.00 | 84 | 1007.7 |
| 20260506041205 | 48 | 25 | 1.0 | 5.0 | 0.00 | 0.00 | 0.00 | 84 | 1007.6 |
| 20260506040705 | 48 | 24 | 1.0 | 0.0 | 0.00 | 0.00 | 0.00 | 84 | 1007.7 |
| 20260506040205 | 48 | 25 | 1.0 | 6.0 | 0.00 | 0.00 | 0.00 | 84 | 1007.7 |
| 20260506035705 | 48 | 25 | 1.0 | 6.0 | 0.00 | 0.00 | 0.00 | 84 | 1007.8 |
| 20260506035205 | 48 | 24 | 1.0 | 6.0 | 0.00 | 0.00 | 0.00 | 84 | 1007.8 |
| 20260506034705 | 48 | 25 | 1.0 | 4.0 | 0.00 | 0.00 | 0.00 | 84 | 1007.8 |
| 20260506034205 | 48 | 24 | 1.0 | 4.0 | 0.00 | 0.00 | 0.00 | 84 | 1007.8 |
| 20260506033705 | 48 | 25 | 1.0 | 4.0 | 0.00 | 0.00 | 0.00 | 83 | 1007.8 |
| 20260506033205 | 48 | 25 | 2.0 | 5.0 | 0.00 | 0.00 | 0.00 | 83 | 1007.9 |
| 20260506032705 | 48 | 25 | 2.0 | 6.0 | 0.00 | 0.00 | 0.00 | 83 | 1007.9 |
| 20260506032205 | 48 | 25 | 2.0 | 6.0 | 0.00 | 0.00 | 0.00 | 83 | 1007.8 |
| 20260506031705 | 48 | 25 | 2.0 | 5.0 | 0.00 | 0.00 | 0.00 | 83 | 1007.8 |
| 20260506031205 | 48 | 25 | 1.0 | 5.0 | 0.00 | 0.00 | 0.00 | 83 | 1007.8 |
| 20260506030705 | 48 | 25 | 1.0 | 5.0 | 0.00 | 0.00 | 0.00 | 83 | 1007.8 |
| 20260506030205 | 48 | 25 | 2.0 | 6.0 | 0.00 | 0.00 | 0.00 | 83 | 1007.9 |
| 20260506025705 | 48 | 25 | 2.0 | 5.0 | 0.00 | 0.00 | 0.00 | 83 | 1007.9 |
| 20260506025205 | 48 | 25 | 1.0 | 5.0 | 0.00 | 0.00 | 0.00 | 83 | 1007.9 |
| 20260506024705 | 49 | 25 | 1.0 | 6.0 | 0.00 | 0.00 | 0.00 | 83 | 1007.9 |
| 20260506024205 | 49 | 25 | 1.0 | 6.0 | 0.00 | 0.00 | 0.00 | 82 | 1007.9 |
| 20260506023705 | 49 | 25 | 2.0 | 6.0 | 0.00 | 0.00 | 0.00 | 82 | 1007.9 |
| 20260506023205 | 49 | 25 | 3.0 | 6.0 | 0.00 | 0.00 | 0.00 | 82 | 1007.9 |
| 20260506022705 | 49 | 25 | 2.0 | 7.0 | 0.00 | 0.00 | 0.00 | 82 | 1007.9 |
| 20260506022205 | 49 | 25 | 2.0 | 7.0 | 0.00 | 0.00 | 0.00 | 82 | 1007.9 |
| 20260506021705 | 49 | 25 | 1.0 | 5.0 | 0.00 | 0.00 | 0.00 | 82 | 1007.9 |
| 20260506021205 | 49 | 25 | 2.0 | 6.0 | 0.00 | 0.00 | 0.00 | 82 | 1008.0 |
| 20260506020705 | 49 | 25 | 2.0 | 7.0 | 0.00 | 0.00 | 0.00 | 82 | 1008.0 |
| 20260506020205 | 49 | 25 | 2.0 | 4.0 | 0.00 | 0.00 | 0.00 | 82 | 1008.0 |
| 20260506015705 | 49 | 25 | 2.0 | 5.0 | 0.00 | 0.00 | 0.00 | 82 | 1008.0 |
| 20260506015205 | 49 | 25 | 2.0 | 6.0 | 0.00 | 0.00 | 0.00 | 82 | 1008.0 |
| 20260506014705 | 49 | 25 | 1.0 | 4.0 | 0.00 | 0.00 | 0.00 | 83 | 1008.0 |
| 20260506014205 | 49 | 25 | 1.0 | 6.0 | 0.00 | 0.00 | 0.00 | 83 | 1008.0 |
| 20260506013705 | 49 | 26 | 1.0 | 5.0 | 0.00 | 0.00 | 0.00 | 83 | 1008.0 |
| 20260506013205 | 49 | 26 | 3.0 | 5.0 | 0.00 | 0.00 | 0.00 | 83 | 1008.0 |
| 20260506012705 | 49 | 26 | 3.0 | 8.0 | 0.00 | 0.00 | 0.00 | 83 | 1008.1 |
| 20260506012205 | 49 | 26 | 2.0 | 5.0 | 0.00 | 0.00 | 0.00 | 84 | 1008.1 |
| 20260506011705 | 49 | 26 | 1.0 | 6.0 | 0.00 | 0.00 | 0.00 | 84 | 1008.1 |
| 20260506011205 | 49 | 26 | 1.0 | 6.0 | 0.00 | 0.00 | 0.00 | 84 | 1008.0 |
| 20260506010705 | 50 | 26 | 2.0 | 8.0 | 0.00 | 0.00 | 0.00 | 84 | 1008.0 |
| 20260506010205 | 50 | 27 | 2.0 | 6.0 | 0.00 | 0.00 | 0.00 | 84 | 1008.1 |
| 20260506005705 | 50 | 27 | 1.0 | 7.0 | 0.00 | 0.00 | 0.00 | 84 | 1008.0 |
| 20260506005205 | 50 | 27 | 2.0 | 5.0 | 0.00 | 0.00 | 0.00 | 84 | 1008.1 |
| 20260506004705 | 50 | 27 | 2.0 | 7.0 | 0.00 | 0.00 | 0.00 | 84 | 1008.1 |
| 20260506004205 | 50 | 28 | 1.0 | 5.0 | 0.00 | 0.00 | 0.00 | 84 | 1008.1 |
| 20260506003705 | 50 | 28 | 1.0 | 4.0 | 0.00 | 0.00 | 0.00 | 84 | 1008.1 |
| 20260506003205 | 50 | 29 | 2.0 | 5.0 | 0.00 | 0.00 | 0.00 | 84 | 1008.2 |
| 20260506002705 | 50 | 30 | 2.0 | 7.0 | 0.00 | 0.00 | 0.00 | 84 | 1008.3 |
| 20260506002205 | 50 | 16 | 1.0 | 5.0 | 0.00 | 0.00 | 0.00 | 84 | 1008.3 |
| 20260506001705 | 50 | 16 | 1.0 | 6.0 | 0.00 | 0.00 | 0.00 | 84 | 1008.3 |
| 20260506001205 | 50 | 16 | 1.0 | 6.0 | 0.00 | 0.00 | 0.00 | 84 | 1008.3 |
| 20260506000705 | 51 | 16 | 2.0 | 6.0 | 0.00 | 0.00 | 0.00 | 84 | 1008.3 |
| 20260506000205 | 51 | 16 | 2.0 | 7.0 | 0.00 | 0.00 | 0.00 | 84 | 1008.4 |
| 20260505235705 | 51 | 18 | 1.0 | 8.0 | 0.00 | 0.00 | 0.00 | 84 | 1008.5 |
| 20260505235205 | 51 | 20 | 1.0 | 4.0 | 0.00 | 0.00 | 0.00 | 84 | 1008.4 |
| 20260505234705 | 51 | 20 | 2.0 | 6.0 | 0.00 | 0.00 | 0.00 | 84 | 1008.5 |
| 20260505234205 | 51 | 21 | 2.0 | 8.0 | 0.00 | 0.00 | 0.00 | 84 | 1008.4 |
| 20260505233705 | 51 | 21 | 1.0 | 7.0 | 0.00 | 0.00 | 0.00 | 84 | 1008.4 |
| 20260505233205 | 51 | 23 | 0.0 | 3.0 | 0.00 | 0.00 | 0.00 | 84 | 1008.4 |
| 20260505232705 | 51 | 23 | 1.0 | 3.0 | 0.00 | 0.00 | 0.00 | 84 | 1008.4 |
| 20260505232205 | 51 | 23 | 1.0 | 6.0 | 0.00 | 0.00 | 0.00 | 84 | 1008.4 |
| 20260505231705 | 51 | 23 | 1.0 | 5.0 | 0.00 | 0.00 | 0.00 | 84 | 1008.4 |
| 20260505231205 | 51 | 23 | 1.0 | 5.0 | 0.00 | 0.00 | 0.00 | 83 | 1008.4 |
| 20260505230706 | 51 | 23 | 1.0 | 4.0 | 0.00 | 0.00 | 0.00 | 83 | 1008.5 |
| 20260505230205 | 51 | 23 | 1.0 | 2.0 | 0.00 | 0.00 | 0.00 | 83 | 1008.5 |
| 20260505225705 | 52 | 23 | 2.0 | 7.0 | 0.00 | 0.00 | 0.00 | 83 | 1008.5 |
| 20260505225206 | 52 | 23 | 1.0 | 5.0 | 0.00 | 0.00 | 0.00 | 83 | 1008.5 |
| 20260505224706 | 52 | 23 | 1.0 | 6.0 | 0.00 | 0.00 | 0.00 | 83 | 1008.5 |
| 20260505224206 | 52 | 23 | 1.0 | 5.0 | 0.00 | 0.00 | 0.00 | 82 | 1008.5 |
| 20260505223706 | 52 | 23 | 1.0 | 5.0 | 0.00 | 0.00 | 0.00 | 82 | 1008.5 |
| 20260505223206 | 52 | 23 | 2.0 | 6.0 | 0.00 | 0.00 | 0.00 | 82 | 1008.6 |
| 20260505222706 | 52 | 23 | 1.0 | 5.0 | 0.00 | 0.00 | 0.00 | 82 | 1008.5 |
| 20260505222206 | 52 | 23 | 2.0 | 5.0 | 0.00 | 0.00 | 0.00 | 82 | 1008.6 |
| 20260505221706 | 52 | 23 | 2.0 | 6.0 | 0.00 | 0.00 | 0.00 | 81 | 1008.6 |
| 20260505221206 | 52 | 23 | 2.0 | 5.0 | 0.00 | 0.00 | 0.00 | 81 | 1008.6 |
| 20260505220706 | 52 | 23 | 2.0 | 6.0 | 0.00 | 0.00 | 0.00 | 81 | 1008.6 |
| 20260505220206 | 52 | 23 | 1.0 | 6.0 | 0.00 | 0.00 | 0.00 | 81 | 1008.7 |
| 20260505215706 | 52 | 23 | 1.0 | 5.0 | 0.00 | 0.00 | 0.00 | 81 | 1008.7 |
| 20260505215206 | 52 | 23 | 1.0 | 5.0 | 0.00 | 0.00 | 0.00 | 81 | 1008.7 |
| 20260505214706 | 52 | 23 | 1.0 | 6.0 | 0.00 | 0.00 | 0.00 | 80 | 1008.7 |
| 20260505214206 | 52 | 23 | 1.0 | 4.0 | 0.00 | 0.00 | 0.00 | 80 | 1008.7 |
| 20260505213706 | 52 | 23 | 1.0 | 4.0 | 0.00 | 0.00 | 0.00 | 80 | 1008.7 |
| 20260505213206 | 52 | 23 | 1.0 | 5.0 | 0.00 | 0.00 | 0.00 | 81 | 1008.7 |
| 20260505212706 | 52 | 23 | 2.0 | 6.0 | 0.00 | 0.00 | 0.00 | 81 | 1008.7 |
| 20260505212206 | 52 | 23 | 1.0 | 5.0 | 0.00 | 0.00 | 0.00 | 81 | 1008.7 |
| 20260505211706 | 52 | 23 | 2.0 | 5.0 | 0.00 | 0.00 | 0.00 | 80 | 1008.6 |
| 20260505211206 | 53 | 23 | 2.0 | 7.0 | 0.00 | 0.00 | 0.00 | 80 | 1008.7 |
| 20260505210706 | 53 | 23 | 2.0 | 9.0 | 0.00 | 0.00 | 0.00 | 80 | 1008.7 |
| 20260505210206 | 53 | 27 | 2.0 | 7.0 | 0.00 | 0.00 | 0.00 | 80 | 1008.7 |
| 20260505205706 | 53 | 26 | 2.0 | 6.0 | 0.00 | 0.00 | 0.00 | 80 | 1008.6 |
| 20260505205206 | 53 | 25 | 2.0 | 7.0 | 0.00 | 0.00 | 0.00 | 79 | 1008.6 |
| 20260505204706 | 53 | 17 | 2.0 | 7.0 | 0.00 | 0.00 | 0.00 | 79 | 1008.7 |
| 20260505204206 | 53 | 16 | 2.0 | 10.0 | 0.00 | 0.00 | 0.00 | 79 | 1008.7 |
| 20260505203706 | 53 | 27 | 2.0 | 7.0 | 0.00 | 0.00 | 0.00 | 79 | 1008.6 |
| 20260505203206 | 53 | 27 | 2.0 | 8.0 | 0.00 | 0.00 | 0.00 | 78 | 1008.5 |
| 20260505202706 | 53 | 29 | 2.0 | 7.0 | 0.00 | 0.00 | 0.00 | 78 | 1008.5 |
| 20260505202206 | 54 | 20 | 2.0 | 8.0 | 0.00 | 0.00 | 0.00 | 78 | 1008.4 |
| 20260505201706 | 54 | 25 | 2.0 | 7.0 | 0.00 | 0.00 | 0.00 | 77 | 1008.4 |
| 20260505201206 | 54 | 24 | 2.0 | 7.0 | 0.00 | 0.00 | 0.00 | 77 | 1008.4 |
| 20260505200706 | 54 | 25 | 2.0 | 10.0 | 0.00 | 0.00 | 0.00 | 77 | 1008.4 |
| 20260505200206 | 54 | 23 | 3.0 | 7.0 | 0.00 | 0.00 | 0.00 | 76 | 1008.3 |
| 20260505195706 | 54 | 18 | 3.0 | 10.0 | 0.00 | 0.00 | 0.00 | 76 | 1008.3 |
| 20260505195206 | 54 | 29 | 3.0 | 8.0 | 0.00 | 0.00 | 0.00 | 76 | 1008.2 |
| 20260505194706 | 54 | 30 | 3.0 | 6.0 | 0.00 | 0.00 | 0.00 | 76 | 1008.1 |
| 20260505194206 | 55 | 30 | 3.0 | 8.0 | 0.00 | 0.00 | 0.00 | 75 | 1008.1 |
| 20260505193706 | 55 | 20 | 3.0 | 9.0 | 0.00 | 0.00 | 0.00 | 75 | 1008.0 |
| 20260505193206 | 55 | 33 | 3.0 | 10.0 | 0.00 | 0.00 | 0.00 | 75 | 1008.0 |
| 20260505192706 | 55 | 18 | 3.0 | 9.0 | 0.00 | 0.00 | 0.00 | 75 | 1007.9 |
| 20260505192206 | 55 | 34 | 3.0 | 7.0 | 0.00 | 0.00 | 0.00 | 75 | 1007.9 |
| 20260505191706 | 55 | 31 | 3.0 | 8.0 | 0.00 | 0.00 | 0.00 | 75 | 1007.9 |
| 20260505191206 | 56 | 13 | 3.0 | 10.0 | 0.00 | 0.00 | 0.00 | 74 | 1007.9 |
| 20260505190706 | 56 | 24 | 3.0 | 8.0 | 0.00 | 0.00 | 0.00 | 74 | 1007.9 |
| 20260505190206 | 56 | 21 | 3.0 | 9.0 | 0.00 | 0.00 | 0.00 | 74 | 1007.9 |
| 20260505185706 | 56 | 40 | 3.0 | 12.0 | 0.00 | 0.00 | 0.00 | 74 | 1007.8 |
| 20260505185206 | 56 | 12 | 3.0 | 10.0 | 0.00 | 0.00 | 0.00 | 73 | 1007.8 |
| 20260505184706 | 56 | 8 | 3.0 | 9.0 | 0.00 | 0.00 | 0.00 | 73 | 1007.8 |
| 20260505184206 | 56 | 10 | 3.0 | 9.0 | 0.00 | 0.00 | 0.00 | 73 | 1007.8 |
| 20260505183706 | 57 | 19 | 2.0 | 10.0 | 0.00 | 0.00 | 0.00 | 73 | 1007.7 |
| 20260505183206 | 57 | 65 | 3.0 | 8.0 | 0.00 | 0.00 | 0.00 | 73 | 1007.7 |
| 20260505182706 | 57 | 16 | 2.0 | 9.0 | 0.00 | 0.00 | 0.00 | 72 | 1007.7 |
| 20260505182206 | 57 | 27 | 2.0 | 9.0 | 0.00 | 0.00 | 0.00 | 72 | 1007.8 |
| 20260505181706 | 58 | 77 | 1.0 | 5.0 | 0.00 | 0.00 | 0.00 | 72 | 1007.8 |
| 20260505181206 | 58 | 78 | 2.0 | 3.0 | 0.00 | 0.00 | 0.00 | 72 | 1007.7 |
| 20260505180706 | 58 | 78 | 3.0 | 11.0 | 0.00 | 0.00 | 0.00 | 71 | 1007.7 |
| 20260505180206 | 58 | 13 | 3.0 | 10.0 | 0.00 | 0.00 | 0.00 | 71 | 1007.8 |
| 20260505175706 | 58 | 1 | 4.0 | 12.0 | 0.00 | 0.00 | 0.00 | 70 | 1007.8 |
| 20260505175206 | 58 | 41 | 3.0 | 9.0 | 0.00 | 0.00 | 0.00 | 70 | 1007.8 |
| 20260505174706 | 59 | 18 | 3.0 | 8.0 | 0.00 | 0.00 | 0.00 | 70 | 1007.8 |
| 20260505174206 | 59 | 9 | 2.0 | 9.0 | 0.00 | 0.00 | 0.00 | 70 | 1007.8 |
| 20260505173706 | 59 | 75 | 3.0 | 9.0 | 0.00 | 0.00 | 0.00 | 70 | 1007.7 |
| 20260505173206 | 59 | 77 | 3.0 | 10.0 | 0.00 | 0.00 | 0.00 | 69 | 1007.7 |
| 20260505172706 | 59 | 70 | 3.0 | 9.0 | 0.00 | 0.00 | 0.00 | 69 | 1007.7 |
| 20260505172206 | 59 | 4 | 2.0 | 10.0 | 0.00 | 0.00 | 0.00 | 70 | 1007.6 |
| 20260505171706 | 59 | 63 | 3.0 | 7.0 | 0.00 | 0.00 | 0.00 | 70 | 1007.6 |
| 20260505171206 | 59 | 10 | 4.0 | 10.0 | 0.00 | 0.00 | 0.00 | 70 | 1007.7 |
| 20260505170706 | 59 | 89 | 3.0 | 9.0 | 0.00 | 0.00 | 0.00 | 70 | 1007.6 |
| 20260505170206 | 59 | 72 | 3.0 | 9.0 | 0.00 | 0.00 | 0.00 | 70 | 1007.7 |
| 20260505165706 | 59 | 27 | 4.0 | 12.0 | 0.00 | 0.00 | 0.00 | 70 | 1007.8 |
| 20260505165206 | 59 | 2 | 4.0 | 10.0 | 0.00 | 0.00 | 0.00 | 70 | 1007.7 |
| 20260505164706 | 60 | 1 | 4.0 | 11.0 | 0.00 | 0.00 | 0.00 | 69 | 1007.7 |
| 20260505164206 | 60 | 82 | 4.0 | 8.0 | 0.00 | 0.00 | 0.00 | 69 | 1007.8 |
| 20260505163706 | 60 | 11 | 3.0 | 11.0 | 0.00 | 0.00 | 0.00 | 70 | 1007.7 |
| 20260505163206 | 60 | 12 | 3.0 | 10.0 | 0.00 | 0.00 | 0.00 | 70 | 1007.7 |
| 20260505162706 | 61 | 70 | 2.0 | 6.0 | 0.00 | 0.00 | 0.00 | 70 | 1007.6 |
| 20260505162206 | 61 | 78 | 2.0 | 8.0 | 0.00 | 0.00 | 0.00 | 70 | 1007.6 |
| 20260505161706 | 60 | 20 | 2.0 | 6.0 | 0.00 | 0.00 | 0.00 | 70 | 1007.6 |
| 20260505161206 | 60 | 18 | 3.0 | 8.0 | 0.00 | 0.00 | 0.00 | 70 | 1007.7 |
| 20260505160706 | 60 | 2 | 3.0 | 10.0 | 0.00 | 0.00 | 0.00 | 70 | 1007.7 |
| 20260505160206 | 60 | 7 | 3.0 | 10.0 | 0.00 | 0.00 | 0.00 | 70 | 1007.7 |
| 20260505153206 | 59 | 64 | 2.0 | 5.0 | 0.00 | 0.00 | 0.00 | 75 | 1007.7 |
| 20260505152706 | 59 | 64 | 2.0 | 8.0 | 0.00 | 0.00 | 0.00 | 75 | 1007.8 |
| 20260505152206 | 59 | 64 | 3.0 | 8.0 | 0.00 | 0.00 | 0.00 | 75 | 1007.8 |
| 20260505151706 | 59 | 63 | 2.0 | 7.0 | 0.00 | 0.00 | 0.00 | 75 | 1007.8 |
| 20260505151206 | 59 | 62 | 2.0 | 8.0 | 0.00 | 0.00 | 0.00 | 75 | 1007.8 |
| 20260505150706 | 59 | 71 | 2.0 | 6.0 | 0.00 | 0.00 | 0.00 | 75 | 1007.9 |
| 20260505150206 | 60 | 71 | 3.0 | 8.0 | 0.00 | 0.00 | 0.00 | 74 | 1007.9 |
| 20260505140206 | 58 | 65 | 2.0 | 8.0 | 0.00 | 0.00 | 0.00 | 78 | 1008.4 |
| 20260505130206 | 56 | 74 | 2.0 | 8.0 | 0.00 | 0.08 | 0.00 | 83 | 1009.0 |
| 20260505124706 | 56 | 71 | 4.0 | 7.0 | 0.00 | 0.08 | 0.00 | 83 | 1009.1 |
| 20260505124206 | 56 | 72 | 4.0 | 9.0 | 0.00 | 0.08 | 0.00 | 82 | 1009.1 |
| 20260505123706 | 56 | 81 | 3.0 | 7.0 | 0.00 | 0.08 | 0.00 | 82 | 1009.1 |
| 20260505123206 | 56 | 82 | 3.0 | 9.0 | 0.00 | 0.08 | 0.00 | 82 | 1009.1 |
| 20260505122706 | 56 | 78 | 3.0 | 7.0 | 0.00 | 0.08 | 0.00 | 83 | 1009.1 |
| 20260505122206 | 56 | 78 | 2.0 | 8.0 | 0.00 | 0.08 | 0.00 | 81 | 1009.1 |
| 20260505121706 | 56 | 80 | 3.0 | 9.0 | 0.00 | 0.08 | 0.00 | 82 | 1009.2 |
| 20260505121206 | 56 | 74 | 3.0 | 8.0 | 0.00 | 0.08 | 0.00 | 82 | 1009.1 |
| 20260505120707 | 56 | 71 | 2.0 | 6.0 | 0.00 | 0.08 | 0.00 | 82 | 1009.1 |
| 20260505120206 | 56 | 71 | 2.0 | 7.0 | 0.00 | 0.08 | 0.00 | 82 | 1009.1 |
| 20260505115706 | 56 | 71 | 2.0 | 6.0 | 0.00 | 0.08 | 0.00 | 83 | 1009.1 |
| 20260505115206 | 56 | 71 | 2.0 | 8.0 | 0.00 | 0.08 | 0.00 | 83 | 1009.1 |
| 20260505114706 | 56 | 76 | 2.0 | 6.0 | 0.00 | 0.08 | 0.00 | 83 | 1009.2 |
| 20260505114206 | 56 | 76 | 2.0 | 7.0 | 0.00 | 0.08 | 0.00 | 83 | 1009.2 |
| 20260505113706 | 56 | 76 | 2.0 | 6.0 | 0.00 | 0.08 | 0.00 | 83 | 1009.2 |
| 20260505113206 | 56 | 76 | 1.0 | 5.0 | 0.00 | 0.08 | 0.00 | 83 | 1009.2 |
| 20260505112707 | 56 | 77 | 2.0 | 7.0 | 0.00 | 0.08 | 0.00 | 83 | 1009.2 |
| 20260505112206 | 56 | 77 | 3.0 | 9.0 | 0.00 | 0.08 | 0.00 | 82 | 1009.3 |
| 20260505111707 | 56 | 84 | 3.0 | 10.0 | 0.00 | 0.08 | 0.00 | 83 | 1009.3 |
| 20260505111207 | 56 | 82 | 3.0 | 8.0 | 0.00 | 0.08 | 0.00 | 83 | 1009.4 |
| 20260505110707 | 55 | 81 | 3.0 | 10.0 | 0.00 | 0.08 | 0.00 | 83 | 1009.4 |
| 20260505110207 | 56 | 86 | 4.0 | 9.0 | 0.00 | 0.08 | 0.00 | 83 | 1009.4 |
| 20260505102207 | 56 | 75 | 2.0 | 8.0 | 0.00 | 0.08 | 0.00 | 82 | 1009.5 |
| 20260505101707 | 56 | 76 | 2.0 | 8.0 | 0.00 | 0.08 | 0.00 | 82 | 1009.5 |
| 20260505101207 | 56 | 68 | 2.0 | 7.0 | 0.00 | 0.08 | 0.00 | 83 | 1009.6 |
| 20260505100707 | 55 | 64 | 2.0 | 8.0 | 0.00 | 0.08 | 0.00 | 84 | 1009.5 |
| 20260505100207 | 55 | 18 | 2.0 | 6.0 | 0.00 | 0.08 | 0.00 | 84 | 1009.6 |
| 20260505095707 | 55 | 16 | 2.0 | 8.0 | 0.00 | 0.08 | 0.00 | 84 | 1009.6 |
| 20260505095207 | 55 | 20 | 2.0 | 7.0 | 0.00 | 0.08 | 0.00 | 84 | 1009.5 |
| 20260505094707 | 55 | 23 | 2.0 | 6.0 | 0.00 | 0.08 | 0.00 | 85 | 1009.5 |
| 20260505094207 | 55 | 20 | 4.0 | 9.0 | 0.00 | 0.08 | 0.00 | 85 | 1009.5 |
| 20260505093707 | 54 | 23 | 3.0 | 9.0 | 0.00 | 0.08 | 0.00 | 85 | 1009.5 |
| 20260505093207 | 54 | 30 | 3.0 | 7.0 | 0.00 | 0.08 | 0.00 | 85 | 1009.6 |
| 20260505092707 | 54 | 39 | 3.0 | 7.0 | 0.00 | 0.08 | 0.00 | 85 | 1009.6 |
| 20260505092207 | 54 | 49 | 2.0 | 7.0 | 0.00 | 0.08 | 0.00 | 86 | 1009.6 |
| 20260505091707 | 54 | 53 | 2.0 | 4.0 | 0.00 | 0.08 | 0.00 | 86 | 1009.6 |